Volver al catálogo

CZ-3A DEB

ActivoHEO
NORAD 40813·DEBRIS·🇨🇳 China

Lanzado Feb 2, 2007 desde Xichang Satellite Launch Center

Loading…

Próximos Pases (próximas 24 horas)

TLE

ActualizadoSource: Space-Track

Época: Sep 12, 2026, 19:52 UTC

1 40813U 07003AS  26255.82819068  .00000128  00000-0  33583-2 0  9993
2 40813  27.6530  36.3004 7642785 231.7856  32.1295  1.72546966 85986

Sigue CZ-3A DEB en tiempo real con AllMySat

Download on the App Store